Weather in Beryozovka

Belarus     53°43′09″N   25°29′53″E
temp.,
°C
wind,
m/s
gust,
m/s
humid.,
%
clouds,
%
prec.,
mm/h
press.,
hPa
HPBL,
m
13 june, sun
sun1300:00+12nw2799100 3.9 1005348
03:00+12wnw3798100 7.2 1005411
06:00+12wnw4897100 0.2 1005490
09:00+12wnw4691100 0.3 1006477
12:00+16nw4570100 0.0 1007880
15:00+16nw4680100 1.6 1008876
18:00+15nnw61090100 1.9 1010803
21:00+13nnw6128898 3.1 1011846
14 june, mon
mon1400:00+11nnw51382100 0.1 1013624
03:00+10nnw6138196 0.6 1015534
06:00+9nnw61583100 0.0 1016503
09:00+11nnw5138097 0.0 1017485
12:00+18n686375 0.0 10171221
15:00+18ne466686 0.0 10171104
18:00+18n1278100 0.1 101790
21:00+16nnw2383100 0.1 101760
15 june, tue
tue1500:00+15nnw258199 0.0 1018143
03:00+13nw247694 0.0 1018106
06:00+11wnw23839 0.0 101855
09:00+15w2366100 0.0 1018328
12:00+19w3462100 0.0 1017716
15:00+20w4566100 0.0 10161040
18:00+19w3680100 0.3 1015695
21:00+15nw3897100 1.1 1016355
16 june, wed
wed1600:00+13nw389927 0.0 1017257
03:00+9nnw38965 0.0 1018171
06:00+8nnw26960 0.0 1019137
09:00+14nne36750 0.0 1020506
12:00+18nne45535 0.0 10211171
15:00+20nne444811 0.0 10211391
18:00+20nne455413 0.0 10211394
21:00+16nne22775 0.0 102123
17 june, thu
thu1700:00+12ene22870 0.0 102222
03:00+11ne22890 0.0 102324
06:00+11ene24880 0.0 102472
09:00+18ene35610 0.0 1024384
12:00+22e35491 0.0 10241252
15:00+24ese34445 0.0 10231594
18:00+23ese34511 0.0 10231487
21:00+18e23780 0.0 102344